CW8226 Weather Reports


time (UTC)temp
C
wind
direction
speed
KPH
gust
KPH
rain 1hr
cm
rain 24hr
cm
rain mn
cm
humidity
%
barometer
mb
20260506021709 16 197 0.0 1.6 0.00 0.00 0.00 75 1017.7
20260506021206 16 204 0.0 1.6 0.00 0.00 0.00 75 1017.7
20260506020703 16 207 0.0 4.8 0.00 0.00 0.00 75 1017.4
20260506020201 16 203 0.0 1.6 0.00 0.00 0.00 75 1017.4
20260506015658 16 184 0.0 3.2 0.00 0.00 0.00 75 1017.7
20260506015155 16 207 0.0 1.6 0.00 0.00 0.00 75 1017.7
20260506014647 16 191 0.0 1.6 0.00 0.00 0.00 75 1017.5
20260506014142 16 195 0.0 1.6 0.00 0.00 0.00 75 1017.5
20260506013641 16 211 0.0 1.6 0.00 0.00 0.00 75 1017.8
20260506013137 16 198 0.0 1.6 0.00 0.00 0.00 75 1017.7
20260506012633 16 209 1.6 1.6 0.00 0.00 0.00 75 1017.5
20260506012129 16 222 0.0 4.8 0.00 0.00 0.00 75 1017.6
20260506011627 16 206 0.0 1.6 0.00 0.00 0.00 75 1017.5
20260506011123 16 207 0.0 3.2 0.00 0.00 0.00 74 1017.5
20260506010622 16 202 0.0 1.6 0.00 0.00 0.00 75 1017.6
20260506010119 16 195 1.6 3.2 0.00 0.00 0.00 75 1017.6
20260506005616 16 199 3.2 4.8 0.00 0.00 0.00 74 1017.6
20260506005112 16 197 1.6 3.2 0.00 0.00 0.00 74 1017.6
20260506004609 16 200 3.2 8.0 0.00 0.00 0.00 74 1017.3
20260506004106 16 216 1.6 4.8 0.00 0.00 0.00 73 1017.3
20260506003602 16 203 0.0 1.6 0.00 0.00 0.00 74 1017.5
20260506003058 16 208 0.0 3.2 0.00 0.00 0.00 73 1017.5
20260506002554 16 238 3.2 8.0 0.00 0.00 0.00 74 1017.4
20260506002050 16 205 1.6 4.8 0.00 0.00 0.00 74 1017.2
20260506001546 16 210 0.0 9.7 0.00 0.00 0.00 74 1017.2
20260506001044 16 208 1.6 8.0 0.00 0.00 0.00 73 1017.2
20260506000542 16 254 1.6 8.0 0.00 0.00 0.00 74 1017.1
20260506000039 16 208 1.6 4.8 0.00 0.00 0.00 73 1017.0
20260505235537 16 194 1.6 3.2 0.00 0.00 0.00 73 1017.3
20260505235033 16 236 3.2 4.8 0.00 0.00 0.00 73 1017.1
20260505234530 16 203 0.0 1.6 0.00 0.00 0.00 73 1017.3
20260505234027 16 262 1.6 11.3 0.00 0.00 0.00 73 1017.0
20260505233525 17 201 1.6 11.3 0.00 0.00 0.00 72 1017.1
20260505233022 17 246 1.6 9.7 0.00 0.00 0.00 72 1017.2
20260505232519 17 208 1.6 3.2 0.00 0.00 0.00 73 1017.2
20260505232017 17 235 4.8 8.0 0.00 0.00 0.00 72 1017.3
20260505231514 17 233 1.6 3.2 0.00 0.00 0.00 71 1017.2
20260505231013 17 101 0.0 3.2 0.00 0.00 0.00 71 1017.2
20260505230509 17 217 3.2 8.0 0.00 0.00 0.00 71 1016.9
20260505230006 18 265 1.6 4.8 0.00 0.00 0.00 69 1017.4
20260505225502 18 222 0.0 1.6 0.00 0.00 0.00 68 1017.1
20260505224958 18 185 1.6 3.2 0.00 0.00 0.00 67 1017.2
20260505224455 18 209 1.6 4.8 0.00 0.00 0.00 69 1017.2
20260505223953 18 279 4.8 4.8 0.00 0.00 0.00 68 1017.2
20260505223450 18 250 3.2 8.0 0.00 0.00 0.00 67 1017.2
20260505222946 18 315 3.2 4.8 0.00 0.00 0.00 68 1017.1
20260505222442 17 280 4.8 4.8 0.00 0.00 0.00 68 1017.1
20260505221938 18 210 3.2 8.0 0.00 0.00 0.00 67 1017.5
20260505221436 18 221 0.0 3.2 0.00 0.00 0.00 68 1017.5
20260505220933 17 248 1.6 3.2 0.00 0.00 0.00 70 1017.5
20260505220430 17 268 8.0 9.7 0.00 0.00 0.00 69 1017.4
20260505215927 17 207 1.6 3.2 0.00 0.00 0.00 69 1017.4
20260505215425 17 206 1.6 9.7 0.00 0.00 0.00 71 1017.4
20260505214923 17 229 3.2 4.8 0.00 0.00 0.00 70 1017.6
20260505214420 17 167 3.2 3.2 0.00 0.00 0.00 69 1017.5
20260505213917 17 197 1.6 4.8 0.00 0.00 0.00 70 1017.6
20260505213415 17 209 1.6 1.6 0.00 0.00 0.00 70 1017.6
20260505212911 17 202 1.6 1.6 0.00 0.00 0.00 71 1017.7
20260505212408 17 219 1.6 3.2 0.00 0.00 0.00 70 1017.7
20260505211904 17 255 3.2 4.8 0.00 0.00 0.00 70 1017.8
20260505211402 17 226 1.6 1.6 0.00 0.00 0.00 70 1017.9
20260505210858 17 150 1.6 8.0 0.00 0.00 0.00 70 1017.6
20260505210355 17 141 1.6 1.6 0.00 0.00 0.00 70 1017.6
20260505205852 17 235 3.2 4.8 0.00 0.00 0.00 70 1017.7
20260505205350 17 193 0.0 3.2 0.00 0.00 0.00 69 1017.6
20260505204847 17 205 0.0 3.2 0.00 0.00 0.00 70 1017.5
20260505204345 17 231 0.0 1.6 0.00 0.00 0.00 70 1017.6
20260505203842 17 230 0.0 3.2 0.00 0.00 0.00 70 1017.7
20260505203338 17 197 1.6 1.6 0.00 0.00 0.00 71 1017.7
20260505202835 17 233 1.6 3.2 0.00 0.00 0.00 71 1017.7
20260505202331 17 309 6.4 8.0 0.00 0.00 0.00 69 1017.6
20260505201828 17 206 0.0 1.6 0.00 0.00 0.00 70 1017.9
20260505201325 17 199 0.0 1.6 0.00 0.00 0.00 71 1017.9
20260505200823 16 252 1.6 1.6 0.00 0.00 0.00 71 1018.0
20260505200320 17 310 1.6 4.8 0.00 0.00 0.00 71 1017.9
20260505195815 16 184 0.0 3.2 0.00 0.00 0.00 72 1017.9
20260505195313 17 288 1.6 3.2 0.00 0.00 0.00 70 1018.0
20260505194810 17 216 1.6 1.6 0.00 0.00 0.00 71 1017.9
20260505194307 16 159 0.0 1.6 0.00 0.00 0.00 73 1017.8
20260505193802 16 263 4.8 4.8 0.00 0.00 0.00 73 1017.9
20260505193300 16 208 1.6 3.2 0.00 0.00 0.00 73 1018.0
20260505192758 16 296 4.8 9.7 0.00 0.00 0.00 73 1018.0
20260505192256 17 231 1.6 1.6 0.00 0.00 0.00 74 1018.0
20260505191753 16 205 0.0 4.8 0.00 0.00 0.00 76 1018.2
20260505191252 16 290 1.6 9.7 0.00 0.00 0.00 77 1018.3
20260505190748 16 212 3.2 9.7 0.00 0.00 0.00 78 1018.0
20260505190243 16 259 3.2 4.8 0.00 0.00 0.00 77 1018.1
20260505185740 15 225 3.2 3.2 0.00 0.00 0.00 79 1018.0
20260505185236 15 210 1.6 3.2 0.00 0.00 0.00 80 1018.0
20260505184732 16 248 4.8 4.8 0.00 0.00 0.00 78 1017.8
20260505184230 15 216 1.6 4.8 0.00 0.00 0.00 81 1017.9
20260505183726 15 222 1.6 8.0 0.00 0.00 0.00 81 1017.8
20260505183224 15 235 1.6 4.8 0.00 0.00 0.00 81 1018.1
20260505182720 15 225 1.6 8.0 0.00 0.00 0.00 81 1018.1
20260505182218 15 218 1.6 3.2 0.00 0.00 0.00 82 1018.2
20260505181713 15 151 3.2 4.8 0.00 0.00 0.00 83 1018.1
20260505181211 15 258 1.6 3.2 0.00 0.00 0.00 84 1017.9
20260505180707 15 213 0.0 3.2 0.00 0.00 0.00 83 1017.9
20260505180204 14 266 1.6 4.8 0.00 0.00 0.00 84 1017.9
20260505175700 14 209 1.6 3.2 0.00 0.00 0.00 85 1017.9
20260505175156 14 206 1.6 1.6 0.00 0.00 0.00 85 1017.8
20260505174653 14 209 1.6 4.8 0.00 0.00 0.00 86 1017.8
20260505174149 14 255 3.2 9.7 0.00 0.00 0.00 87 1017.6
20260505173646 13 286 4.8 9.7 0.00 0.00 0.00 88 1017.8
20260505173143 13 252 3.2 4.8 0.00 0.00 0.00 89 1017.5
20260505172641 13 290 3.2 4.8 0.00 0.00 0.00 91 1017.4
20260505172138 13 231 0.0 3.2 0.00 0.00 0.00 92 1017.7
20260505171637 13 219 0.0 1.6 0.00 0.00 0.00 93 1017.6
20260505171135 13 203 0.0 1.6 0.00 0.00 0.00 93 1017.6
20260505170632 12 221 0.0 3.2 0.00 0.00 0.00 94 1017.4
20260505170129 13 226 1.6 1.6 0.00 0.00 0.00 95 1017.6
20260505165624 12 212 0.0 0.0 0.00 0.00 0.00 95 1017.6
20260505165120 12 212 0.0 0.0 0.00 0.00 0.00 96 1017.6
20260505164615 12 215 1.6 1.6 0.00 0.00 0.00 96 1017.4
20260505164113 12 203 0.0 0.0 0.00 0.00 0.00 97 1017.4
20260505163612 12 202 0.0 1.6 0.00 0.00 0.00 97 1017.3
20260505163109 12 222 0.0 1.6 0.00 0.00 0.00 98 1017.3
20260505162606 12 204 0.0 0.0 0.00 0.00 0.00 99 1017.5
20260505162104 12 207 0.0 1.6 0.00 0.00 0.00 99 1017.5
20260505161601 12 198 0.0 0.0 0.00 0.00 0.00 99 1017.4
20260505161058 12 209 0.0 0.0 0.00 0.00 0.00 99 1017.3
20260505160555 12 208 0.0 1.6 0.00 0.00 0.00 99 1017.4
20260505153032 12 195 0.0 0.0 0.00 0.00 0.00 99 1017.3
20260505152529 11 195 0.0 0.0 0.00 0.00 0.00 99 1017.3
20260505152025 11 192 0.0 0.0 0.00 0.00 0.00 99 1017.3
20260505151520 12 198 0.0 0.0 0.00 0.00 0.00 99 1017.0
20260505151018 11 198 0.0 0.0 0.00 0.00 0.00 99 1017.0
20260505150514 11 199 0.0 0.0 0.00 0.00 0.00 99 1017.1
20260505140439 11 195 0.0 0.0 0.00 0.00 0.00 99 1016.7
20260505124852 11 202 0.0 1.6 0.00 0.00 0.00 98 1016.5
20260505124349 11 199 0.0 0.0 0.00 0.00 0.00 97 1016.6
20260505123845 11 197 0.0 0.0 0.00 0.00 0.00 97 1016.7
20260505123342 11 193 0.0 0.0 0.00 0.00 0.00 97 1016.8
20260505122838 11 190 0.0 0.0 0.00 0.00 0.00 97 1016.7
20260505122336 11 192 0.0 0.0 0.00 0.00 0.00 97 1016.7
20260505121832 11 191 0.0 0.0 0.00 0.00 0.00 97 1016.6
20260505121329 11 188 0.0 0.0 0.00 0.00 0.00 97 1016.3
20260505120825 11 196 0.0 0.0 0.00 0.00 0.00 97 1016.3
20260505120321 11 196 0.0 0.0 0.00 0.00 0.00 96 1016.4
20260505115820 11 196 0.0 0.0 0.00 0.00 0.00 96 1016.5
20260505115317 11 192 0.0 0.0 0.00 0.00 0.00 96 1016.8
20260505114815 11 192 0.0 0.0 0.00 0.00 0.00 96 1016.8
20260505114306 11 198 0.0 0.0 0.00 0.00 0.00 95 1016.5
20260505113802 11 199 0.0 0.0 0.00 0.00 0.00 95 1016.4
20260505113259 11 199 0.0 0.0 0.00 0.00 0.00 95 1016.6
20260505112754 11 198 0.0 0.0 0.00 0.00 0.00 94 1016.5
20260505112253 11 198 0.0 0.0 0.00 0.00 0.00 94 1016.7
20260505111752 11 198 0.0 0.0 0.00 0.00 0.00 93 1016.4
20260505111248 11 198 0.0 0.0 0.00 0.00 0.00 93 1016.7
20260505110745 11 200 0.0 0.0 0.00 0.00 0.00 93 1016.3
20260505110243 11 208 0.0 0.0 0.00 0.00 0.00 92 1016.8
20260505102218 11 195 0.0 0.0 0.00 0.00 0.00 89 1016.4
20260505101716 11 194 0.0 0.0 0.00 0.00 0.00 88 1016.7
20260505101212 11 195 0.0 0.0 0.00 0.00 0.00 88 1016.5
20260505100709 11 194 0.0 0.0 0.00 0.00 0.00 88 1016.3
20260505100206 11 196 0.0 0.0 0.00 0.00 0.00 87 1016.6
20260505095701 11 196 0.0 0.0 0.00 0.00 0.00 87 1016.7
20260505095159 11 195 0.0 0.0 0.00 0.00 0.00 87 1016.9
20260505094655 11 201 0.0 0.0 0.00 0.00 0.00 87 1016.9
20260505094151 11 206 0.0 0.0 0.00 0.00 0.00 86 1016.6
20260505093648 11 201 0.0 0.0 0.00 0.00 0.00 86 1016.7
20260505093145 11 196 0.0 0.0 0.00 0.00 0.00 85 1016.9
20260505092642 11 200 0.0 0.0 0.00 0.00 0.00 85 1016.8
20260505092141 11 203 0.0 0.0 0.00 0.00 0.00 85 1016.8
20260505091637 11 206 0.0 0.0 0.00 0.00 0.00 85 1016.8
20260505091135 11 202 0.0 0.0 0.00 0.00 0.00 84 1016.9
20260505090633 11 202 0.0 0.0 0.00 0.00 0.00 84 1017.0
20260505090131 11 204 0.0 1.6 0.00 0.00 0.00 84 1016.9
20260505085628 11 201 0.0 0.0 0.00 0.00 0.00 84 1017.1
20260505085126 11 201 0.0 0.0 0.00 0.00 0.00 84 1017.1
20260505084624 11 205 0.0 0.0 0.00 0.00 0.00 83 1017.4
20260505084122 11 198 0.0 0.0 0.00 0.00 0.00 83 1017.0
20260505083619 11 191 0.0 0.0 0.00 0.00 0.00 83 1017.0
20260505083115 11 198 0.0 0.0 0.00 0.00 0.00 83 1017.4
20260505082611 11 219 1.6 3.2 0.00 0.00 0.00 82 1017.4
20260505082108 12 203 0.0 0.0 0.00 0.00 0.00 82 1017.5
20260505081604 12 249 1.6 1.6 0.00 0.00 0.00 82 1017.4
20260505081102 12 205 0.0 0.0 0.00 0.00 0.00 81 1017.3
20260505080558 12 207 0.0 3.2 0.00 0.00 0.00 81 1017.2
20260505080055 12 245 1.6 3.2 0.00 0.00 0.00 80 1017.7
20260505075550 12 199 0.0 0.0 0.00 0.00 0.00 78 1017.5
20260505075047 12 194 0.0 3.2 0.00 0.00 0.00 78 1017.7
20260505074544 12 243 1.6 3.2 0.00 0.00 0.00 77 1017.6
20260505074042 12 220 1.6 3.2 0.00 0.00 0.00 77 1017.7
20260505073539 12 227 1.6 3.2 0.00 0.00 0.00 78 1017.5
20260505073038 12 211 0.0 1.6 0.00 0.00 0.00 78 1017.5
20260505072532 12 213 3.2 4.8 0.00 0.00 0.00 78 1017.3
20260505072029 12 253 1.6 3.2 0.00 0.00 0.00 78 1017.6
20260505071525 12 211 1.6 3.2 0.00 0.00 0.00 78 1017.5
20260505071023 12 200 1.6 3.2 0.00 0.00 0.00 78 1017.6
20260505070520 12 184 1.6 4.8 0.00 0.00 0.00 78 1017.2
20260505070016 12 220 1.6 8.0 0.00 0.00 0.00 78 1017.2
20260505065512 12 299 3.2 4.8 0.00 0.00 0.00 78 1017.2
20260505065009 12 303 3.2 4.8 0.00 0.00 0.00 78 1017.2
20260505064506 12 339 3.2 4.8 0.00 0.00 0.00 79 1017.2
20260505064004 12 223 1.6 3.2 0.00 0.00 0.00 80 1017.3
20260505063501 12 201 0.0 0.0 0.00 0.00 0.00 80 1017.2
20260505062957 12 228 1.6 1.6 0.00 0.00 0.00 81 1017.1
20260505062454 12 213 1.6 3.2 0.00 0.00 0.00 82 1017.0
20260505061951 12 215 1.6 1.6 0.00 0.00 0.00 82 1017.1
20260505061449 12 231 1.6 3.2 0.00 0.00 0.00 82 1016.9
20260505060946 12 211 0.0 1.6 0.00 0.00 0.00 82 1016.9
20260505060443 12 239 0.0 1.6 0.00 0.00 0.00 82 1016.8
20260505055940 12 204 0.0 3.2 0.00 0.00 0.00 81 1016.9
20260505055435 12 282 3.2 8.0 0.00 0.00 0.00 82 1017.0
20260505054932 12 230 1.6 4.8 0.00 0.00 0.00 83 1017.1
20260505054430 12 206 3.2 3.2 0.00 0.00 0.00 83 1016.9
20260505053928 12 210 1.6 1.6 0.00 0.00 0.00 82 1017.0
20260505053424 12 243 3.2 3.2 0.00 0.00 0.00 82 1017.2
20260505052921 12 188 1.6 1.6 0.00 0.00 0.00 82 1017.2
20260505052418 12 350 1.6 4.8 0.00 0.00 0.00 82 1017.2
20260505051916 13 295 6.4 8.0 0.00 0.00 0.00 82 1017.2
20260505051413 13 199 0.0 3.2 0.00 0.00 0.00 83 1017.4
20260505050911 13 265 1.6 3.2 0.00 0.00 0.00 84 1017.4
20260505050409 13 336 3.2 3.2 0.00 0.00 0.00 84 1017.3
20260505041336 13 198 1.6 3.2 0.00 0.00 0.00 83 1016.9
20260505040833 13 196 0.0 4.8 0.00 0.00 0.00 82 1016.8
20260505040331 13 200 1.6 3.2 0.00 0.00 0.00 83 1016.9
20260505035827 13 204 0.0 3.2 0.00 0.00 0.00 83 1016.8
20260505035322 13 203 0.0 3.2 0.00 0.00 0.00 82 1016.9
20260505034821 13 213 1.6 3.2 0.00 0.00 0.00 82 1016.7
20260505034317 13 203 1.6 3.2 0.00 0.00 0.00 82 1016.9
20260505033814 13 215 1.6 1.6 0.00 0.00 0.00 81 1016.6
20260505033311 13 189 1.6 4.8 0.00 0.00 0.00 81 1016.5
20260505032810 13 269 3.2 4.8 0.00 0.00 0.00 81 1016.3
20260505032305 13 211 1.6 4.8 0.00 0.00 0.00 80 1016.3
20260505031803 13 258 3.2 4.8 0.00 0.00 0.00 80 1016.4
20260505031259 13 225 1.6 4.8 0.00 0.00 0.00 80 1016.2
20260505030756 13 199 0.0 1.6 0.00 0.00 0.00 79 1016.3
20260505030252 13 205 0.0 3.2 0.00 0.00 0.00 79 1016.0
20260505025748 13 291 3.2 4.8 0.00 0.00 0.00 78 1016.1
20260505025246 13 208 0.0 3.2 0.00 0.00 0.00 78 1016.2
20260505024744 14 171 0.0 3.2 0.00 0.00 0.00 77 1016.3
20260505024241 14 217 1.6 9.7 0.00 0.00 0.00 76 1016.2
20260505023738 14 250 1.6 3.2 0.00 0.00 0.00 75 1016.5
20260505023235 14 203 0.0 4.8 0.00 0.00 0.00 75 1016.3
20260505022733 15 251 3.2 4.8 0.00 0.00 0.00 74 1016.2
20260505022230 15 225 1.6 4.8 0.00 0.00 0.00 73 1016.1